Wetbulb
71.92 74.58 74.93 75.77 76.74 77.32 77.35 77.13 77.60 77.72 77.81 77.92 78.25 78.29 78.04 77.70 77.81 77.62 77.68 77.18 77.55 77.86 77.42 77.32 76.94 76.80 77.16 77.35 76.74 76.66 76.38 76.79 76.72 76.35 76.65 76.27 76.18 76.18 76.13 76.16 75.78 74.88 75.33
73.07 74.86 74.74 76.18 76.69 77.17 77.25 77.71 77.77 77.56 77.87 77.73 78.19 77.69 77.80 77.31 77.60 77.61 77.18 77.52 77.70 77.35 77.35 77.55 77.47 77.10 77.02 76.77 76.91 76.89 77.13 76.60 76.49 76.23 76.30 76.43 76.23 76.10 75.53 75.78 75.52 75.73 75.68
73.18 75.14 75.43 77.15 76.64 76.85 77.35 77.80 77.72 77.42 77.54 77.59 77.83 77.69 77.08 77.95 77.72 77.19 77.47 76.43 76.68 76.98 77.10 76.82 76.77 76.66 76.86 76.94 76.76 76.28 76.56 76.33 76.28 76.32 75.19 74.80 74.89 75.62 75.57 75.48 75.65 75.74 75.83
73.95 75.33 75.67 76.74 76.90 77.46 77.48 77.40 78.17 77.59 77.43 77.80 77.62 76.80 77.15 77.12 77.23 76.52 76.57 77.08 77.32 76.24 76.88 76.82 76.82 76.57 76.39 76.33 76.47 76.41 76.14 75.74 75.65 75.01 75.03 74.59 74.04 75.17 75.76 75.42 75.02 74.53 74.33
74.29 75.37 75.88 76.41 76.99 77.23 77.56 78.09 78.05 77.88 78.01 77.78 76.94 76.93 76.95 76.55 76.33 75.36 75.33 75.31 75.58 76.12 76.32 76.57 76.40 76.32 76.01 75.27 75.07 74.93 74.91 75.41 74.36 73.49 74.84 75.34 75.31 74.99 74.92 74.75 74.59 75.06 74.66
74.18 75.44 76.02 76.43 76.74 77.21 77.88 77.72 77.84 78.15 77.51 77.76 76.95 76.85 76.82 76.79 76.16 75.89 75.30 75.06 74.53 74.42 74.78 75.55 75.55 75.25 74.58 73.80 73.61 74.61 76.39 76.04 73.62 74.62 75.04 75.46 75.66 75.38 75.26 74.67 74.40 74.75 74.06
74.13 75.59 76.08 77.34 76.71 77.39 77.59 77.84 77.96 77.91 77.85 77.27 76.92 76.87 76.94 77.17 77.70 77.01 76.19 75.33 74.75 74.08 73.96 74.38 74.91 74.41 73.85 74.16 76.56 75.29 76.14 74.90 74.43 74.32 75.32 76.00 76.20 74.81 74.96 74.85 74.61 74.14 74.63
73.38 75.16 75.93 76.69 76.59 77.19 77.67 77.76 78.00 78.05 77.57 77.27 77.18 77.23 77.31 77.44 77.32 76.97 76.60 76.02 75.61 74.95 74.64 74.77 74.41 74.23 74.39 74.75 76.05 75.41 75.01 73.59 72.71 72.11 73.49 75.18 74.06 73.53 74.82 74.52 74.48 73.73 73.54
73.74 74.82 76.09 76.40 76.60 76.74 77.56 77.51 77.36 77.92 77.51 77.00 77.03 77.16 77.18 77.19 77.14 76.98 77.13 76.62 76.05 75.69 75.50 75.22 74.94 74.85 74.94 75.17 75.55 75.73 75.38 74.70 73.31 73.99 73.35 74.57 74.05 73.26 72.90 73.36 73.09 73.03 73.21
73.76 74.28 75.61 76.69 76.24 76.76 77.56 77.60 77.98 77.97 77.40 76.74 76.29 76.54 76.68 76.68 76.89 76.79 75.90 77.76 76.66 76.03 74.84 74.22 74.29 74.79 75.25 75.53 75.06 75.96 74.00 73.96 72.20 73.86 74.31 73.68 74.15 74.26 73.89 74.04 73.97 73.15 73.30
73.24 74.41 75.42 75.51 74.96 77.19 77.22 77.54 77.42 77.00 76.91 77.10 76.41 76.14 75.36 75.60 76.01 76.61 77.44 77.64 77.36 77.48 77.11 76.58 76.36 76.28 76.11 75.41 75.41 73.55 71.94 70.29 69.77 70.76 70.76 70.48 71.96 73.22 73.64 73.55 73.39 73.93 73.79
71.10 72.84 75.14 74.82 73.57 76.69 76.28 78.10 77.34 77.38 77.46 77.33 77.00 76.83 75.88 76.60 76.86 76.31 76.46 75.00 74.55 74.95 75.44 76.74 78.14 78.50 77.72 77.08 76.67 75.77 75.61 74.19 70.20 69.02 68.98 67.88 70.59 71.72 72.57 72.55 72.88 72.74 72.71
71.49 72.55 73.89 74.35 73.11 74.01 76.21 76.55 76.69 77.01 77.20 76.72 77.36 77.36 77.07 76.74 76.71 75.65 75.59 75.14 76.23 76.21 77.28 78.00 78.53 78.08 77.33 77.36 77.61 77.05 76.65 75.99 73.52 70.16 71.55 68.63 70.61 71.26 72.47 72.19 71.89 71.70 71.62
71.92 72.19 73.37 72.90 74.10 74.69 75.46 75.34 76.35 76.35 76.82 76.68 77.11 77.70 77.55 76.42 76.35 76.19 76.01 75.82 76.29 76.16 76.61 76.95 76.88 77.60 77.90 78.19 77.79 77.15 76.95 75.74 73.95 71.56 73.02 69.35 71.02 72.05 73.00 73.42 73.04 72.43 72.35
71.50 72.59 72.79 72.58 74.44 74.56 74.30 75.29 76.16 76.35 76.85 77.33 77.70 77.93 77.37 76.63 76.69 76.32 75.50 75.85 76.21 75.97 75.97 76.34 76.73 77.18 77.75 77.54 77.86 77.52 77.10 76.88 75.17 72.50 72.40 70.21 71.45 73.17 73.48 74.27 74.48 74.11 73.98
70.95 71.88 72.94 73.44 74.01 74.24 74.03 74.62 75.52 76.50 77.17 77.69 78.00 78.04 76.95 76.80 77.41 76.42 76.07 76.27 76.51 77.02 76.09 76.02 77.14 77.09 76.92 77.31 77.23 76.46 76.74 77.21 77.35 75.89 73.37 73.34 72.30 73.45 75.01 74.61 75.12 75.60 75.63
70.50 71.72 72.32 72.92 73.50 73.59 73.89 74.20 74.36 75.55 76.45 77.04 77.58 78.19 77.45 77.28 77.37 77.16 76.22 76.06 76.63 77.56 76.83 77.24 77.85 77.53 76.80 77.01 77.08 77.10 76.41 76.35 76.80 77.01 75.39 73.85 74.05 72.83 74.27 76.38 76.25 76.28 76.16
70.40 71.10 72.08 71.98 72.43 73.00 73.47 73.93 73.93 74.90 75.79 76.50 76.99 77.33 77.24 77.17 77.02 76.68 75.70 75.83 77.15 77.25 76.50 76.55 76.75 75.96 76.07 76.17 76.91 77.33 77.77 77.18 76.43 76.17 76.21 75.34 74.61 74.55 75.48 74.52 76.93 77.01 76.59
71.10 71.37 71.55 72.39 72.36 73.05 73.70 73.54 74.39 74.76 75.59 76.50 76.96 76.64 77.32 76.89 76.69 76.87 75.88 75.78 77.39 76.66 76.60 75.75 75.97 76.52 75.72 75.59 75.26 76.19 77.13 76.71 76.57 76.02 76.38 76.25 76.24 75.46 75.61 76.42 75.49 76.35 76.99
71.71 72.13 72.26 72.40 73.12 74.05 73.67 73.92 74.02 74.29 75.17 76.28 76.70 76.87 77.24 76.70 76.61 76.64 76.20 76.28 76.38 75.82 75.84 76.45 76.32 76.48 75.96 75.25 74.42 74.77 76.55 76.31 76.52 76.65 76.62 76.53 76.64 76.65 76.57 76.94 76.97 76.97 76.70
72.18 72.16 72.02 72.11 73.58 73.76 72.83 72.19 73.09 73.25 74.71 75.74 76.64 77.47 77.58 77.48 76.60 76.46 75.40 75.75 76.26 75.65 76.46 77.12 75.87 75.38 74.40 75.71 73.89 73.30 74.44 76.02 75.96 75.78 76.48 76.31 75.79 76.07 76.76 76.84 77.14 77.15 76.60
72.29 72.67 72.77 72.68 73.77 73.88 73.72 74.08 74.39 75.02 75.27 75.78 76.48 76.96 77.51 77.40 77.05 76.43 76.54 75.70 76.09 75.00 76.39 76.99 76.61 74.43 74.13 75.38 72.50 72.11 69.51 71.80 75.77 75.16 75.96 76.38 76.73 76.53 76.52 76.56 77.03 76.98 76.28
71.65 72.78 73.14 73.64 74.30 74.49 75.11 74.56 74.50 74.88 74.59 74.10 74.79 75.22 76.20 77.10 77.11 76.92 76.67 76.48 76.39 76.24 74.26 76.27 76.48 75.69 73.02 74.61 76.00 72.65 68.21 67.82 72.12 75.68 74.82 76.25 77.14 76.21 76.48 76.47 76.71 76.89 76.29
71.28 73.05 73.78 74.34 74.54 74.83 75.43 74.71 74.72 73.24 72.46 73.62 74.72 75.09 75.87 76.50 76.64 76.87 76.85 76.71 76.58 75.98 75.74 75.23 75.50 75.89 75.60 72.97 74.50 75.67 76.47 74.93 70.14 69.70 74.23 75.35 77.03 76.05 76.38 76.15 76.15 76.42 76.76
70.96 72.09 73.10 74.09 74.46 74.59 74.27 75.04 74.25 73.97 73.74 74.04 73.75 74.53 75.53 76.41 76.35 75.93 76.25 76.56 76.56 76.07 76.35 76.41 76.22 75.75 74.51 73.88 73.40 73.49 74.78 74.36 75.09 72.01 69.30 71.99 74.53 75.00 75.46 75.34 75.04 74.28 75.32
70.81 70.63 72.45 72.46 72.36 73.19 72.96 73.64 73.24 73.26 73.38 72.90 73.55 73.09 73.19 73.90 74.72 76.21 76.38 76.69 76.97 76.71 76.47 76.54 76.72 76.53 75.88 75.10 74.52 75.08 73.79 71.99 71.20 71.83 71.08 71.72 72.05 73.86 75.12 75.50 75.13 75.04 76.32
MSLP
1017.45 1017.46 1017.43 1017.45 1017.33 1017.18 1017.12 1017.31 1017.15 1017.16 1017.16 1017.15 1017.20 1017.30 1017.34 1017.45 1017.51 1017.52 1017.59 1017.69 1017.67 1017.56 1017.61 1017.64 1017.71 1017.74 1017.72 1017.82 1017.99 1018.01 1018.16 1018.17 1018.30 1018.43 1018.45 1018.47 1018.52 1018.55 1018.56 1018.66 1018.54 1018.44 1018.96
1017.23 1017.54 1017.59 1017.61 1017.54 1017.49 1017.49 1017.50 1017.55 1017.44 1017.47 1017.44 1017.47 1017.58 1017.73 1017.85 1017.87 1017.80 1017.95 1017.90 1017.85 1017.99 1017.91 1017.94 1017.99 1018.01 1018.11 1018.18 1018.36 1018.37 1018.46 1018.52 1018.53 1018.71 1018.67 1018.70 1018.85 1018.88 1018.97 1019.01 1018.80 1018.96 1019.18
1017.16 1017.57 1017.55 1017.65 1017.75 1017.75 1017.77 1017.72 1017.76 1017.84 1017.81 1017.81 1017.82 1017.91 1018.01 1017.98 1018.04 1018.22 1018.15 1018.21 1018.24 1018.23 1018.25 1018.32 1018.33 1018.42 1018.50 1018.57 1018.68 1018.77 1018.85 1018.83 1018.82 1018.91 1018.87 1018.45 1018.69 1019.20 1019.25 1019.26 1019.27 1019.34 1019.43
1017.42 1017.63 1017.64 1017.86 1017.86 1017.91 1017.91 1018.00 1018.07 1018.18 1018.11 1018.10 1018.28 1018.45 1018.56 1018.54 1018.51 1018.51 1018.48 1018.48 1018.49 1018.57 1018.56 1018.64 1018.74 1018.84 1018.93 1018.98 1019.05 1019.04 1019.09 1019.12 1019.23 1019.28 1018.80 1018.70 1018.85 1019.56 1019.54 1019.55 1019.58 1019.65 1019.74
1017.60 1017.73 1017.88 1018.08 1018.15 1018.17 1018.26 1018.24 1018.29 1018.40 1018.35 1018.44 1018.74 1018.72 1018.77 1018.80 1018.85 1018.84 1018.81 1018.80 1018.84 1018.89 1018.93 1018.97 1019.08 1019.16 1019.27 1019.32 1019.35 1019.32 1019.31 1019.37 1019.47 1019.19 1019.23 1019.18 1018.86 1019.69 1019.78 1019.77 1019.83 1019.86 1019.88
1017.75 1017.89 1018.17 1018.30 1018.44 1018.48 1018.48 1018.58 1018.65 1018.59 1018.69 1018.76 1018.99 1019.02 1019.06 1019.06 1019.04 1018.99 1018.99 1019.02 1019.10 1019.16 1019.24 1019.32 1019.36 1019.41 1019.47 1019.47 1019.45 1019.46 1019.35 1019.48 1019.53 1019.29 1019.40 1019.55 1019.36 1019.86 1019.87 1019.92 1019.94 1020.04 1020.15
1017.83 1018.04 1018.25 1018.54 1018.61 1018.72 1018.78 1018.79 1018.74 1018.76 1018.97 1019.14 1019.29 1019.36 1019.32 1019.25 1019.17 1019.17 1019.17 1019.24 1019.37 1019.39 1019.47 1019.51 1019.54 1019.57 1019.55 1019.46 1019.36 1019.54 1019.62 1019.74 1019.43 1019.58 1019.74 1019.68 1019.69 1020.04 1019.98 1019.98 1020.01 1020.14 1020.22
1017.84 1018.26 1018.46 1018.79 1018.88 1018.97 1019.04 1019.01 1019.05 1019.18 1019.29 1019.50 1019.61 1019.59 1019.57 1019.50 1019.46 1019.42 1019.43 1019.50 1019.60 1019.59 1019.63 1019.65 1019.68 1019.67 1019.62 1019.57 1019.63 1019.75 1019.86 1019.84 1019.60 1019.79 1019.92 1019.96 1020.38 1020.28 1020.19 1020.13 1020.25 1020.30 1020.34
1018.04 1018.34 1018.61 1018.77 1019.01 1019.06 1019.12 1019.26 1019.28 1019.43 1019.64 1019.80 1019.88 1019.84 1019.76 1019.78 1019.72 1019.73 1019.75 1019.74 1019.78 1019.79 1019.80 1019.77 1019.74 1019.74 1019.68 1019.70 1019.73 1019.90 1019.97 1020.04 1019.53 1019.74 1019.90 1020.01 1020.56 1020.41 1020.35 1020.40 1020.52 1020.43 1020.42
1018.14 1018.44 1018.75 1019.01 1019.06 1019.26 1019.23 1019.37 1019.56 1019.68 1019.85 1019.97 1020.03 1019.99 1020.01 1020.00 1019.96 1019.99 1019.92 1019.90 1019.87 1019.87 1019.84 1019.79 1019.75 1019.76 1019.77 1019.79 1019.82 1019.93 1020.02 1020.09 1019.58 1019.87 1019.99 1020.15 1020.73 1020.51 1020.47 1020.55 1020.58 1020.67 1020.63
1018.66 1018.83 1018.87 1019.02 1019.45 1019.28 1019.46 1019.53 1019.74 1019.88 1020.03 1020.14 1020.14 1020.18 1020.02 1019.92 1019.92 1019.86 1020.04 1019.96 1019.85 1019.79 1019.74 1019.71 1019.74 1019.77 1019.82 1019.79 1019.82 1019.88 1019.96 1019.70 1019.73 1019.79 1019.87 1020.56 1020.80 1020.62 1020.58 1020.67 1020.70 1020.76 1020.74
1018.55 1018.96 1019.20 1018.97 1019.56 1019.34 1019.38 1019.77 1019.93 1020.00 1020.00 1020.15 1020.27 1020.33 1020.08 1020.10 1020.12 1020.01 1019.95 1020.00 1019.84 1019.71 1019.59 1019.58 1019.60 1019.56 1019.52 1019.12 1019.20 1019.67 1019.30 1019.56 1019.64 1019.69 1019.81 1020.43 1020.71 1020.64 1020.53 1020.69 1020.76 1020.83 1020.84
1018.48 1018.85 1019.19 1018.98 1019.74 1019.83 1019.69 1019.79 1019.91 1019.99 1020.12 1020.23 1020.41 1020.44 1020.43 1020.41 1020.27 1020.04 1019.93 1019.77 1019.64 1019.52 1019.15 1019.13 1019.10 1018.94 1018.97 1018.94 1018.97 1019.02 1019.22 1019.29 1019.36 1019.51 1019.68 1020.24 1020.44 1020.60 1020.43 1020.55 1020.72 1020.81 1020.80
1018.49 1018.73 1019.08 1019.46 1019.64 1019.86 1019.87 1019.90 1020.04 1020.07 1020.16 1020.14 1020.35 1020.54 1020.53 1020.32 1020.44 1020.38 1020.10 1020.00 1019.83 1019.67 1019.61 1019.45 1019.10 1019.09 1018.85 1018.90 1018.89 1018.83 1018.88 1019.01 1019.25 1019.36 1019.43 1020.05 1020.18 1020.42 1020.43 1020.35 1020.42 1020.68 1020.60
1018.74 1018.94 1019.30 1019.75 1019.79 1019.88 1020.13 1020.19 1020.33 1020.29 1020.23 1020.31 1020.34 1020.42 1020.36 1020.22 1020.28 1020.20 1020.19 1019.95 1019.91 1019.91 1019.80 1019.62 1019.35 1019.06 1018.91 1018.77 1018.75 1018.80 1018.71 1018.78 1019.03 1019.24 1019.24 1019.72 1019.92 1020.02 1020.22 1020.18 1020.16 1020.37 1020.30
1018.78 1019.07 1019.41 1019.68 1019.94 1020.08 1020.20 1020.39 1020.42 1020.44 1020.40 1020.43 1020.41 1020.42 1020.48 1020.38 1020.37 1020.18 1020.06 1019.95 1019.88 1019.97 1019.92 1019.73 1019.57 1019.18 1018.91 1018.71 1018.64 1018.65 1018.68 1018.60 1018.75 1018.96 1018.89 1018.92 1019.41 1019.53 1019.59 1019.72 1019.83 1019.87 1019.93
1018.78 1019.14 1019.32 1019.56 1019.88 1020.24 1020.41 1020.47 1020.48 1020.49 1020.37 1020.48 1020.45 1020.58 1020.59 1020.58 1020.50 1020.47 1020.14 1019.98 1019.94 1020.01 1019.97 1019.72 1019.49 1019.14 1018.86 1018.58 1018.73 1018.48 1018.43 1018.50 1018.37 1018.57 1018.70 1018.62 1018.61 1019.01 1019.03 1019.01 1019.16 1019.27 1019.36
1018.49 1018.98 1019.29 1019.41 1019.54 1019.90 1020.19 1020.43 1020.47 1020.48 1020.52 1020.47 1020.43 1020.45 1020.54 1020.53 1020.55 1020.49 1020.19 1020.10 1020.24 1020.01 1019.92 1019.72 1019.54 1019.33 1019.13 1018.87 1018.67 1018.37 1018.11 1018.14 1018.16 1018.20 1018.14 1018.14 1018.09 1018.04 1018.24 1018.55 1018.63 1018.63 1018.63
1018.36 1018.75 1019.18 1019.49 1019.67 1020.03 1020.29 1020.48 1020.55 1020.56 1020.55 1020.39 1020.36 1020.33 1020.45 1020.47 1020.49 1020.54 1020.36 1020.31 1020.45 1020.09 1019.96 1019.91 1019.75 1019.73 1019.37 1019.12 1018.56 1018.26 1018.15 1017.92 1017.73 1017.44 1017.62 1017.75 1017.69 1017.79 1017.59 1017.69 1018.06 1018.12 1018.03
1018.18 1018.71 1019.04 1019.35 1019.69 1019.92 1020.14 1020.44 1020.41 1020.33 1020.22 1020.20 1020.15 1020.13 1020.32 1020.31 1020.53 1020.56 1020.32 1020.41 1020.47 1020.14 1020.01 1020.09 1020.08 1019.88 1019.77 1019.52 1018.84 1018.40 1018.09 1017.80 1017.63 1017.51 1017.37 1017.17 1017.07 1017.33 1017.28 1017.29 1017.33 1017.05 1017.38
1017.88 1018.30 1018.82 1019.19 1019.47 1019.82 1020.03 1020.12 1020.21 1020.06 1019.98 1019.95 1019.86 1020.00 1020.19 1020.30 1020.40 1020.50 1020.26 1020.28 1020.31 1020.29 1020.28 1020.27 1020.08 1019.95 1019.51 1019.55 1018.82 1018.33 1017.93 1017.80 1017.50 1017.46 1017.26 1016.97 1016.92 1016.91 1017.04 1017.06 1017.10 1016.82 1016.55
1017.31 1017.84 1018.41 1018.84 1019.22 1019.51 1019.69 1019.96 1020.05 1020.00 1019.89 1019.84 1019.69 1019.82 1019.94 1020.10 1020.19 1020.28 1020.33 1020.25 1020.19 1020.14 1020.21 1020.20 1020.17 1019.79 1019.63 1019.70 1019.19 1018.56 1017.88 1017.58 1017.48 1017.50 1017.46 1017.25 1017.20 1016.99 1016.79 1016.78 1016.93 1016.89 1016.63
1016.86 1017.34 1017.79 1018.32 1018.72 1019.15 1019.49 1019.79 1019.88 1019.93 1019.91 1019.78 1019.73 1019.66 1019.40 1019.63 1019.79 1019.99 1020.03 1020.10 1020.16 1020.20 1019.93 1020.02 1020.00 1019.98 1019.54 1019.57 1019.77 1019.32 1018.38 1017.86 1017.97 1017.50 1017.51 1017.40 1017.39 1017.09 1016.89 1016.74 1016.65 1016.66 1016.56
1016.09 1016.86 1017.51 1018.10 1018.45 1018.81 1019.34 1019.58 1019.67 1019.51 1019.50 1019.38 1019.58 1019.50 1019.38 1019.48 1019.42 1019.44 1019.53 1019.65 1019.75 1019.67 1019.77 1019.67 1019.66 1019.93 1019.98 1019.46 1019.46 1019.47 1019.44 1019.19 1018.44 1017.51 1017.36 1017.29 1017.39 1017.09 1016.97 1016.60 1016.42 1016.35 1016.34
1016.20 1016.49 1017.09 1017.76 1018.36 1018.77 1019.10 1019.38 1019.51 1019.56 1019.42 1019.50 1019.56 1019.53 1019.37 1019.30 1019.26 1019.17 1019.18 1019.20 1019.22 1019.07 1019.09 1019.43 1019.40 1019.58 1019.60 1019.61 1019.29 1019.15 1019.11 1018.96 1018.90 1018.43 1017.35 1017.03 1017.09 1016.86 1016.82 1016.53 1016.30 1016.01 1015.90
1016.27 1016.84 1017.06 1017.73 1018.20 1018.55 1018.87 1019.10 1019.31 1019.38 1019.43 1019.32 1019.12 1019.06 1018.93 1018.84 1018.71 1018.71 1018.77 1018.79 1018.63 1018.55 1018.60 1018.55 1018.90 1019.20 1019.30 1019.29 1019.21 1019.17 1018.93 1018.51 1018.20 1018.08 1017.61 1017.21 1016.91 1016.84 1016.76 1016.47 1016.14 1015.82 1015.70
Wind_Speed
4 5 5 7 10 11 11 11 13 13 13 14 14 13 13 13 14 14 13 15 14 14 14 15 15 15 14 15 15 14 13 13 14 13 13 14 13 13 13 13 11 14 13
10 6 4 8 10 10 12 10 12 13 14 14 14 12 14 13 13 16 14 14 16 14 15 15 14 15 14 14 13 13 13 12 12 11 11 13 12 12 12 12 10 13 12
12 8 7 8 10 11 10 13 13 12 11 13 12 13 12 12 13 12 13 14 14 13 13 14 14 13 13 13 13 12 11 11 11 10 7 7 10 10 11 12 12 12 12
11 8 8 6 9 11 12 11 11 11 11 13 12 12 11 11 14 13 13 13 13 13 12 12 12 12 11 10 9 10 9 10 9 6 5 6 8 9 10 11 10 10 10
11 8 9 8 9 9 10 10 11 11 11 13 12 12 13 13 13 12 12 12 12 11 10 10 10 11 10 8 6 5 2 7 7 4 6 5 6 9 8 8 9 9 6
11 8 9 8 8 8 9 11 9 11 11 12 12 12 12 10 10 11 12 11 10 10 9 9 10 9 8 7 5 4 6 7 2 5 4 7 4 7 7 7 7 7 7
11 8 9 7 7 7 9 9 8 12 11 11 11 11 11 10 15 11 12 11 10 10 8 8 8 8 8 9 8 7 8 7 4 4 4 4 7 5 4 6 7 6 6
11 8 7 7 6 5 9 7 8 10 11 10 9 10 11 12 13 13 12 11 9 9 8 8 7 7 9 10 8 7 7 4 3 4 3 2 6 3 3 4 5 4 3
10 9 7 6 7 5 9 7 7 9 9 8 8 8 9 9 10 10 10 9 8 7 6 5 5 5 7 9 6 6 5 4 3 3 3 2 3 2 1 2 1 1 1
8 8 7 6 5 2 5 5 8 8 7 7 7 7 7 7 8 9 3 6 6 4 2 2 2 4 5 6 7 5 6 4 4 2 2 3 4 2 1 1 1 2 3
7 7 7 7 4 4 4 4 6 6 6 6 6 7 4 5 6 6 7 8 6 5 4 3 2 1 1 4 5 5 4 3 2 1 1 3 3 5 4 4 4 3 4
10 9 7 8 4 6 4 4 4 3 3 4 4 5 4 5 6 6 6 7 7 7 5 6 6 5 6 2 1 5 1 1 1 1 1 2 3 4 6 5 6 6 6
12 10 10 9 4 4 4 3 2 2 2 3 4 4 4 3 4 4 4 5 5 6 4 3 2 3 4 3 2 1 1 1 1 2 1 3 5 4 7 7 7 7 8
12 12 11 6 7 5 3 3 3 2 2 2 2 2 2 1 3 3 4 4 5 5 6 5 4 5 4 4 5 5 5 3 2 2 2 5 6 6 8 9 8 7 9
10 11 10 6 7 5 4 3 3 2 2 2 1 2 3 3 3 4 4 4 5 5 5 5 5 6 6 5 4 5 6 5 5 3 3 6 7 8 9 11 11 9 10
9 10 10 10 7 6 4 4 3 2 1 1 1 2 4 3 4 4 4 5 5 6 5 5 6 6 6 5 5 5 5 5 6 6 4 4 9 10 11 13 13 13 12
9 10 12 12 10 8 6 4 3 3 2 2 2 2 3 3 4 4 4 4 5 5 6 6 6 5 6 5 5 5 4 5 6 6 6 5 5 11 13 13 13 14 14
12 12 11 10 11 10 7 4 3 3 3 3 3 3 3 3 4 4 4 5 5 5 5 6 6 6 7 7 6 6 5 4 6 7 7 6 6 6 8 14 14 15 16
12 12 12 11 10 9 6 5 4 4 4 4 4 4 4 4 4 4 4 5 5 5 5 5 5 6 6 7 8 6 6 5 6 6 6 7 8 7 6 5 10 14 17
12 11 11 10 11 9 6 5 5 5 5 5 5 5 5 4 5 4 4 5 5 5 5 5 5 5 5 6 8 7 6 5 4 5 6 5 5 6 7 7 6 6 12
13 13 12 12 11 8 7 6 6 7 5 5 6 7 7 6 6 4 5 6 5 5 4 4 4 5 5 6 6 8 7 4 5 5 5 5 5 5 5 5 5 4 4
15 14 13 13 12 11 8 6 4 3 4 5 4 6 7 7 7 6 5 6 6 5 5 4 3 4 4 4 6 6 6 7 4 5 4 5 6 4 5 4 4 4 5
15 16 15 15 14 12 10 6 4 3 4 5 6 6 6 8 7 8 7 7 7 6 6 5 4 4 6 4 4 4 6 6 8 2 4 3 5 5 5 5 5 5 6
16 14 14 13 14 11 11 9 10 8 8 7 7 7 7 7 8 8 8 7 7 6 7 7 5 5 4 7 5 2 3 4 6 7 4 6 4 6 6 6 6 7 6
11 12 11 11 11 9 9 11 8 9 8 7 6 8 8 8 8 9 9 9 8 7 7 8 8 7 5 7 6 6 5 5 5 7 10 8 8 6 7 6 8 8 8
7 7 8 8 7 7 8 10 10 11 9 9 8 7 8 7 8 9 10 9 9 9 9 8 9 10 8 7 7 7 8 8 8 7 9 9 10 8 7 7 7 6 5
Wind_Direction
127 91 50 72 96 95 97 97 99 97 98 85 90 91 93 98 92 90 89 89 89 91 84 88 92 93 91 90 87 88 93 94 97 97 99 98 95 92 92 97 132 98 95
128 102 85 88 85 93 100 100 89 80 84 90 85 86 86 84 88 88 86 86 81 85 85 83 87 85 86 88 89 86 85 84 87 101 94 102 91 96 100 98 87 97 99
125 122 113 88 91 93 102 95 93 93 92 89 82 74 71 76 80 82 82 83 80 81 85 86 87 86 84 81 79 79 82 82 83 85 83 79 89 93 91 91 91 92 94
124 118 108 88 94 104 93 95 100 96 95 87 83 83 80 80 80 76 74 72 77 86 88 90 89 88 82 78 76 74 83 79 77 77 77 81 92 83 87 94 99 100 100
122 116 112 102 96 97 104 104 96 96 85 82 85 79 69 71 80 81 78 76 74 77 83 84 82 77 71 64 59 59 98 86 81 91 84 78 81 96 101 107 110 102 84
126 125 116 115 104 111 107 103 99 93 88 83 76 77 73 72 84 81 79 74 75 78 80 82 79 71 57 43 37 58 78 107 93 63 74 95 77 105 114 103 97 93 99
138 130 130 122 118 98 105 111 104 88 82 82 80 77 70 57 61 80 74 73 74 78 78 78 72 61 45 36 38 104 89 92 46 58 80 52 75 73 68 101 103 97 98
139 132 134 124 124 115 114 93 84 87 84 79 76 71 67 52 59 63 67 71 72 77 80 81 75 62 49 48 81 88 88 61 55 60 71 67 53 46 42 94 95 95 89
143 141 135 142 128 123 114 117 106 94 84 78 73 70 70 66 64 64 61 71 78 84 91 94 86 70 63 56 90 90 76 66 48 57 53 58 60 359 59 47 67 149 146
152 142 145 142 122 71 132 104 93 91 83 77 75 67 61 63 50 59 69 60 67 73 86 112 91 79 81 74 76 117 81 108 47 53 56 58 342 347 356 356 254 230 245
155 158 165 156 116 119 119 105 95 90 79 66 69 54 61 47 45 46 33 17 13 0 335 311 309 341 58 94 98 124 155 61 13 305 322 84 276 279 273 268 265 257 259
171 173 170 157 142 145 139 102 97 84 67 64 64 52 50 28 4 7 33 8 358 349 322 314 306 293 251 349 92 180 23 39 262 294 277 227 251 266 278 271 269 267 263
172 172 178 168 135 133 147 145 132 112 101 95 63 26 31 19 10 18 5 1 6 24 16 353 338 303 302 297 294 300 305 275 285 271 300 249 248 249 276 274 270 271 272
169 170 177 160 161 165 159 163 150 149 139 108 65 3 20 17 31 25 28 28 24 19 12 9 359 349 321 298 290 294 278 278 238 256 252 237 263 257 263 272 266 265 269
177 171 166 184 177 181 184 167 188 181 162 65 4 5 356 359 21 29 42 30 36 21 19 2 345 339 328 314 314 306 290 276 262 259 271 217 241 255 255 264 265 257 263
177 177 173 191 198 202 198 197 203 207 177 225 304 5 353 346 2 17 27 25 28 21 12 1 357 348 350 348 349 333 308 278 260 253 256 255 231 240 246 252 260 262 259
182 181 187 190 199 211 217 215 217 238 227 249 263 283 331 325 344 346 8 8 14 15 5 8 4 10 11 16 11 349 324 299 275 259 250 249 243 230 246 245 247 255 258
184 190 190 200 198 206 216 221 242 251 261 269 272 279 271 290 347 332 339 354 359 0 4 12 10 2 0 1 357 350 334 304 285 272 261 255 247 264 220 240 250 248 253
194 191 194 201 207 218 225 238 246 251 263 275 273 275 277 292 318 327 329 338 337 342 357 356 6 2 358 357 338 352 337 318 304 299 280 265 261 262 269 240 236 252 254
195 202 199 203 214 209 212 232 250 253 251 259 262 259 265 276 287 294 307 312 314 319 335 354 353 1 346 354 339 343 339 323 325 316 312 290 284 281 274 273 275 262 238
200 195 205 200 205 203 211 221 237 247 252 251 238 244 260 262 264 269 292 293 280 288 321 333 334 346 338 354 323 340 339 350 10 20 359 349 352 331 311 290 283 288 301
200 202 201 211 206 207 205 215 236 245 262 280 271 256 253 249 252 259 268 280 284 284 277 285 319 327 320 356 336 319 329 326 355 6 21 24 24 16 13 354 328 305 312
208 203 204 207 208 211 214 209 213 234 249 252 251 261 250 243 247 246 260 271 275 266 276 283 278 298 316 323 339 318 315 318 327 5 335 4 12 8 353 350 341 323 315
211 209 209 212 215 211 205 220 229 235 246 252 264 274 278 263 257 247 249 249 259 272 274 270 268 283 278 302 310 267 267 297 309 303 302 306 297 323 340 320 330 323 316
209 208 209 208 215 216 203 217 228 243 248 264 272 281 276 272 260 261 258 261 252 251 260 268 271 257 265 280 281 285 280 273 255 281 298 305 307 309 311 313 321 317 314
183 201 204 197 175 184 187 213 216 233 244 258 257 264 269 269 271 263 262 259 256 255 247 250 260 262 262 258 268 268 267 280 288 279 289 292 301 301 307 302 307 322 316